User: anonymous
Location: Fort Wayne
(41.1310°N, 85.1290°W)
Time: 09:22:12
(UTC-04:00)
Language:

OAO 2 Rocket - Orbit

View from above orbital plane
View from above orbital plane
View from above satellite
View from above satellite

Ground track
Ground track

The orbit data is extracted from the following two-line orbital elements,

1 03598U 68110B   14234.89438154  .00000268  00000-0  66720-4 0  6894
2 03598 034.9952 027.6288 0049955 162.1009 330.4569 14.53663001416575
Epoch (UTC): 22 August 2014 21:27:54
Eccentricity: 0.0049955
inclination: 34.9952°
perigee height: 678 km
apogee height: 749 km
right ascension of ascending node: 27.6288°
argument of perigee: 162.1009°
revolutions per day: 14.53663001
mean anomaly at epoch: 330.4569°
orbit number at epoch: 41657

The dashed part of the orbit path shows where the satellite is in the earth's shadow,  

DLR